This is the latest recevied weather packets stored in our database for station/object KC4JIR. If no packets are shown the sender has not sent any weather packets the latest 10 day(s).
| Time | Temp. | Humidity | Pressure | Rain* | Wind** | Luminosity | Snow |
|---|---|---|---|---|---|---|---|
| 1787844844 | 29.44° C | 84% | 1013.8 hPa | 0 mm | - | 95 W/m² | - |
| 1787844543 | 29.44° C | 84% | 1014.1 hPa | 0 mm | - | 95 W/m² | - |
| 1787844239 | 29.44° C | 83% | 1013.8 hPa | 0 mm | - | 130 W/m² | - |
| 1787843937 | 29.44° C | 83% | 1014.2 hPa | 0 mm | - | 663 W/m² | - |
| 1787843633 | 29.44° C | 83% | 1014.1 hPa | 0 mm | - | 323 W/m² | - |
| 1787843330 | 29.44° C | 85% | 1013.9 hPa | 0 mm | - | 419 W/m² | - |
| 1787843025 | 28.89° C | 86% | 1013.6 hPa | 0 mm | - | 663 W/m² | - |
| 1787842724 | 28.89° C | 86% | 1013.8 hPa | 0 mm | - | 658 W/m² | - |
| 1787842419 | 28.33° C | 87% | 1013.7 hPa | 0 mm | - | 629 W/m² | - |
| 1787842119 | 27.78° C | 88% | 1013.9 hPa | 0 mm | - | 581 W/m² | - |
| 1787841817 | 27.78° C | 91% | 1013.9 hPa | 0 mm | - | 204 W/m² | - |
| 1787841510 | 27.78° C | 90% | 1014.1 hPa | 0 mm | - | 158 W/m² | - |
| 1787841209 | 27.78° C | 91% | 1013.8 hPa | 0 mm | - | 473 W/m² | - |
| 1787840904 | 27.22° C | 91% | 1013.6 hPa | 0 mm | - | 211 W/m² | - |
| 1787840599 | 27.22° C | 93% | 1013.8 hPa | 0 mm | - | 337 W/m² | - |
| 1787840294 | 26.67° C | 94% | 1013.7 hPa | 0 mm | - | 210 W/m² | - |
| 1787839989 | 26.67° C | 95% | 1013.6 hPa | 0 mm | - | 184 W/m² | - |
| 1787839683 | 26.11° C | 95% | 1013.4 hPa | 0 mm | - | 137 W/m² | - |
| 1787839378 | 26.11° C | 96% | 1013.4 hPa | 0 mm | - | 164 W/m² | - |
| 1787839078 | 26.11° C | 97% | 1013.6 hPa | 0 mm | - | 174 W/m² | - |
| 1787838776 | 25.56° C | 97% | 1013.6 hPa | 0 mm | - | 132 W/m² | - |
| 1787838477 | 25.56° C | 98% | 1013.6 hPa | 0 mm | - | 157 W/m² | - |
| 1787838164 | 25.56° C | 98% | 1013.7 hPa | 0 mm | - | 93 W/m² | - |
| 1787837859 | 25° C | 98% | 1013.5 hPa | 0 mm | - | 121 W/m² | - |
| 1787837558 | 25° C | 99% | 1013.8 hPa | 0 mm | - | 109 W/m² | - |
* Rain latest hour (hover to see other rain measurements)
** Current wind speed in m/s (hover to see current wind gust speed)